User: anonymous   Login
Location: Lake Runnemede Observatory
(43.4843°N, 72.3851°W)
Time: 13:24:55
(UTC-05:00)
Language:

SPOT 5 - Orbit

View from above orbital plane
View from above orbital plane
View from above satellite
View from above satellite

Ground track
Ground track

The orbit data is extracted from the following two-line orbital elements,

1 27421U 02021A   17328.16914493  .00000059  00000-0  24613-4 0  9993
2 27421  98.3867  31.4740 0134721 198.1302 161.5072 14.51898636808885
Epoch (UTC): 24 November 2017 04:03:34
Eccentricity: 0.0134721
inclination: 98.3867°
perigee height: 624 km
apogee height: 815 km
right ascension of ascending node: 31.4740°
argument of perigee: 198.1302°
revolutions per day: 14.51898636
mean anomaly at epoch: 161.5072°
orbit number at epoch: 80888

The dashed part of the orbit path shows where the satellite is in the earth's shadow,  

DLR